Location: Springfield
(37.2150°N, 93.2980°W)
Time: 04:19:38
(UTC-06:00)

Daily predictions for brighter satellites

Satellite Brightness Start Highest point End
(mag) Time Altitude Azimuth Time Altitude Azimuth Time Altitude Azimuth
Cosmos 1943 Rocket 4.3 03:28:16 21° ENE 03:28:16 21° ENE 03:30:59 10° NE
Lacrosse 5 3.2 04:10:01 37° NE 04:10:01 37° NE 04:13:06 10° NE
ADEOS II 3.4 04:04:22 10° NNE 04:07:16 33° NNE 04:07:16 33° NNE
USA 234 3.2 04:03:58 10° NE 04:10:14 82° ENE 04:10:14 82° ENE
Cosmos 2369 Rocket 3.5 04:25:33 28° N 04:25:33 28° N 04:28:24 10° N
Cosmos 407 Rocket 4.0 04:28:00 17° N 04:32:04 59° ENE 04:37:19 10° SSE
Nadezhda 2 Rocket 4.5 04:33:08 10° N 04:39:15 77° E 04:45:23 10° S
CZ-4B R/B 4.5 04:38:39 10° NNE 04:42:36 56° E 04:42:49 55° ESE
Cosmos 1833 4.4 04:41:50 10° NNW 04:47:26 69° ENE 04:53:00 10° SSE
GEOS 3 Rocket 3.5 04:45:02 10° SSE 04:49:56 65° SW 04:49:56 65° SW
Okean 1-7 3.6 04:53:43 10° S 04:57:53 55° E 05:02:03 10° NNE
Cosmos 1190 Rocket 3.9 04:57:30 44° NW 04:59:01 65° WSW 05:04:14 10° S
Sich 1 Rocket 3.4 04:58:13 10° NNW 05:02:44 69° W 05:07:10 10° S
ATLAS 5 CENTAUR R/B 2.9 05:04:12 30° NNW 05:04:12 30° NNW 05:08:04 10° NNE
Cosmos 1908 Rocket 3.4 05:00:43 10° NNW 05:05:10 68° W 05:09:36 10° S
Tiangong 1 2.2 05:07:42 36° NE 05:07:42 36° NE 05:09:40 10° ENE
Meteor 2-10 Rocket 3.2 05:02:21 13° SSW 05:06:51 79° W 05:11:54 10° N
Cosmos 1943 Rocket 2.6 05:09:50 39° WNW 05:10:02 39° WNW 05:15:14 10° N
Cosmos 1782 Rocket 3.6 05:06:15 10° N 05:10:44 78° E 05:15:09 10° S
Okean-O 2.6 05:07:50 10° N 05:12:12 58° WNW 05:13:21 43° SW
CZ-4B R/B 4.3 05:08:11 10° N 05:12:00 27° NW 05:12:00 27° NW
ATLAS CENTAUR R/B 4.2 05:15:19 28° WNW 05:19:11 52° SW 05:37:27 10° SSE
Cosmos 1782 3.9 05:15:40 10° SSE 05:19:26 45° E 05:23:14 10° NNE
SKYMED 2 4.1 05:15:33 10° SSE 05:19:48 60° ENE 05:24:05 10° N
Meteor 1-14 Rocket 4.2 05:15:40 10° N 05:21:30 83° W 05:27:09 10° S
CZ-4C R/B 2.0 05:18:41 25° SW 05:21:47 72° NW 05:27:38 10° NNE
Cosmos 1244 Rocket 4.4 05:18:35 10° NNW 05:24:42 60° W 05:30:43 10° S
Cosmos 1954 Rocket 3.9 05:20:47 10° NNW 05:26:06 80° WSW 05:31:25 10° SSE
NOAA 6 3.9 05:25:09 10° N 05:30:18 70° WNW 05:35:23 10° SSW
Cosmos 1420 Rocket 3.9 05:25:16 10° SSW 05:30:26 79° WNW 05:35:38 10° NNE
Ariane Rocket 4.0 05:25:59 10° NNE 05:30:55 48° E 05:35:47 10° S
Okean 2 Rocket 2.9 05:29:08 10° N 05:33:32 79° W 05:37:54 10° S
Cosmos 1606 3.5 05:32:14 10° S 05:36:00 55° E 05:39:49 10° NNE
SL-08 R/B 4.4 05:33:59 10° N 05:40:17 73° W 05:46:35 10° S
Cosmos 1703 Rocket 4.4 05:41:24 23° WSW 05:42:44 27° WNW 05:46:27 10° NNW
Thor Agena Rocket 3.9 05:37:57 10° S 05:42:51 40° W 05:47:44 10° NNW
Meteor 2-6 Rocket 4.5 05:37:38 10° S 05:42:57 68° E 05:48:19 10° NNE
S3M 4.1 05:42:10 10° SSW 05:48:23 57° W 05:54:35 10° N
ADEOS II 3.8 05:46:14 10° NNW 05:48:14 13° NW 05:48:14 13° NW
Meteor 1-31 Rocket 4.2 05:47:39 10° NNW 05:50:24 19° WNW 05:50:24 19° WNW
Lacrosse 5 3.3 05:49:14 17° WNW 05:51:27 22° NNW 05:55:24 10° NNE
Meteor 1-25 Rocket 4.3 05:45:47 10° NNW 05:51:34 65° W 05:57:20 10° S
Cosmos 2297 Rocket 4.5 05:47:06 10° N 05:51:35 23° ENE 05:56:00 10° ESE
Cosmos 1607 4.1 05:46:34 10° SSW 05:52:39 75° ESE 05:58:48 10° NNE
Cosmos 2151 Rocket 3.8 05:48:10 10° N 05:52:41 77° E 05:57:09 10° S
USA 234 4.2 05:47:30 10° NNE 05:53:01 30° NNW 05:57:36 14° W
Delta 2 Rocket 4.3 05:49:56 14° WSW 05:54:01 59° SSE 05:59:24 10° E
Cosmos 1452 Rocket 4.4 05:51:03 12° WSW 05:55:04 28° WNW 05:59:38 10° N
CZ-4 R/B 3.4 05:52:17 10° NNE 05:56:04 33° E 05:59:46 10° SSE
Cosmos 1553 Rocket 4.2 05:50:26 10° SSW 05:56:18 46° WNW 06:02:19 10° N
Cosmos 2219 3.2 05:59:12 10° NNW 06:04:49 64° WSW 06:10:21 10° S
COSMO-SKYMED 1 3.1 06:03:53 10° SSW 06:07:52 36° W 06:11:53 10° NNW
Cosmos 1741 Rocket 4.0 06:03:26 10° NNW 06:08:40 71° WSW 06:13:53 10° S
Meteor 1-11 Rocket 4.4 06:04:20 10° N 06:10:16 64° E 06:16:05 10° SSE
Meteor 1-10 Rocket 4.2 06:05:04 10° SSW 06:10:31 58° W 06:16:05 10° N
Cosmos 2227 Rocket 3.5 06:06:17 10° N 06:11:42 44° ENE 06:17:04 10° SE
ATLAS 3B R/B 2.9 06:11:59 10° SW 06:19:35 75° WNW 06:26:57 10° NNE
USA 81 4.5 06:15:42 10° SSW 06:20:36 39° W 06:25:32 10° NNW
